Tracking 31027 objects as of 19-Jul-2025
HD Live streaming from Space Station
objects crossing your sky now

ONEWEB-0208

Track ONEWEB-0208 now!
10-day predictions
ONEWEB-0208 is classified as:


NORAD ID: 48243
Int'l Code: 2021-031AK
Perigee: 1,211.6 km
Apogee: 1,214.3 km
Inclination: 87.9 °
Period: 109.5 minutes
Semi major axis: 7583 km
RCS: Unknown
Launch date: April 25, 2021
Source: United Kingdom (UK)
Launch site: VOSTOCHNY COSMODROME (VOSTO)
Your satellite tracking list
Your tracking list is empty




NASA's NSSDC Master Catalog

Two Line Element Set (TLE):
1 48243U 21031AK  25199.68794244 -.00000104  00000-0 -31404-3 0  9990
2 48243  87.9052 356.0569 0001812  88.0397 272.0940 13.14503992204495
Source of the keplerian elements: AFSPC